BAW998 EGLL-EDDB

Flight info

Callsign BAW998
Flight time 1h 21m
Altitude 37000
Route BPK6J BPK Q295 MATCH REDFA TACHA BATEL T207 OGBER OGBE1R
Aircraft A21N/M-SDE3FGHIRWY/LB1

Departure

Time 2026-05-05 18:07
Airport London Heathrow Airport (EGLL)

Arrival

Time 2026-05-05 19:28
Airport Berlin Brandenburg Airport (EDDB)
Time Latitude Longitude Altitude Speed Heading
2026-05-05 17:29 51.47087 -0.48576 92 ft 0 kts 270°
2026-05-05 17:59 51.47087 -0.48562 92 ft 2 kts 270°
2026-05-05 17:59 51.47087 -0.48538 92 ft 2 kts 270°
2026-05-05 17:59 51.47087 -0.48517 92 ft 0 kts 270°
2026-05-05 17:59 51.47088 -0.48499 92 ft 2 kts 246°
2026-05-05 18:00 51.47097 -0.48480 92 ft 2 kts 214°
2026-05-05 18:00 51.47110 -0.48472 92 ft 0 kts 184°
2026-05-05 18:00 51.47116 -0.48472 92 ft 1 kts 178°
2026-05-05 18:00 51.47118 -0.48472 92 ft 0 kts 179°
2026-05-05 18:03 51.47107 -0.48472 92 ft 2 kts 179°
2026-05-05 18:03 51.47076 -0.48472 92 ft 5 kts 180°
2026-05-05 18:03 51.47026 -0.48472 92 ft 8 kts 180°
2026-05-05 18:03 51.46957 -0.48471 92 ft 11 kts 180°
2026-05-05 18:04 51.46873 -0.48470 92 ft 13 kts 180°
2026-05-05 18:04 51.46773 -0.48469 92 ft 15 kts 180°
2026-05-05 18:04 51.46667 -0.48469 92 ft 15 kts 180°
2026-05-05 18:04 51.46561 -0.48468 92 ft 15 kts 180°
2026-05-05 18:05 51.46493 -0.48467 92 ft 4 kts 180°
2026-05-05 18:05 51.46482 -0.48466 92 ft 0 kts 159°
2026-05-05 18:05 51.46481 -0.48456 92 ft 2 kts 97°
2026-05-05 18:05 51.46479 -0.48426 92 ft 3 kts 93°
2026-05-05 18:06 51.46478 -0.48369 92 ft 17 kts 91°
2026-05-05 18:06 51.46480 -0.48041 92 ft 71 kts 90°
2026-05-05 18:06 51.46486 -0.46288 93 ft 159 kts 89°
2026-05-05 18:06 51.46483 -0.44345 471 ft 177 kts 88°
2026-05-05 18:07 51.46477 -0.42383 1175 ft 178 kts 85°
2026-05-05 18:07 51.46834 -0.40617 2017 ft 168 kts 54°
2026-05-05 18:07 51.47588 -0.39171 2565 ft 176 kts 48°
2026-05-05 18:07 51.48418 -0.37665 3073 ft 186 kts 47°
2026-05-05 18:08 51.49315 -0.36071 3585 ft 199 kts 47°
2026-05-05 18:08 51.50250 -0.34382 4120 ft 211 kts 47°
2026-05-05 18:08 51.51242 -0.32546 4598 ft 229 kts 47°
2026-05-05 18:08 51.52288 -0.30519 5148 ft 244 kts 54°
2026-05-05 18:09 51.53018 -0.27989 5726 ft 260 kts 73°
2026-05-05 18:09 51.53484 -0.25123 6441 ft 268 kts 72°
2026-05-05 18:09 51.54008 -0.22276 7197 ft 274 kts 71°
2026-05-05 18:09 51.54586 -0.19356 7984 ft 278 kts 67°
2026-05-05 18:10 51.55696 -0.16859 8684 ft 280 kts 37°
2026-05-05 18:10 51.57435 -0.15513 9499 ft 279 kts 10°
2026-05-05 18:10 51.59342 -0.15568 10232 ft 282 kts 349°
2026-05-05 18:10 51.61313 -0.16186 10733 ft 295 kts 351°
2026-05-05 18:11 51.63376 -0.16142 11175 ft 309 kts 11°
2026-05-05 18:11 51.65483 -0.15163 11572 ft 325 kts 17°
2026-05-05 18:11 51.67687 -0.14064 12159 ft 333 kts 16°
2026-05-05 18:11 51.69917 -0.12989 12862 ft 338 kts 16°
2026-05-05 18:12 51.72129 -0.11814 13522 ft 344 kts 23°
2026-05-05 18:12 51.74112 -0.09640 14161 ft 350 kts 46°
2026-05-05 18:12 51.75396 -0.06296 14792 ft 357 kts 70°
2026-05-05 18:12 51.75817 -0.02367 15433 ft 361 kts 84°
2026-05-05 18:13 51.76073 0.01646 16092 ft 364 kts 83°
2026-05-05 18:13 51.76368 0.05731 16743 ft 368 kts 82°
2026-05-05 18:13 51.76687 0.09811 17344 ft 371 kts 82°
2026-05-05 18:13 51.77024 0.13966 17961 ft 374 kts 81°
2026-05-05 18:14 51.77362 0.18098 18567 ft 377 kts 81°
2026-05-05 18:14 51.77715 0.22318 19147 ft 381 kts 80°
2026-05-05 18:14 51.78188 0.26482 19674 ft 384 kts 76°
2026-05-05 18:14 51.78817 0.30665 20224 ft 387 kts 75°
2026-05-05 18:15 51.79496 0.34911 20765 ft 391 kts 74°
2026-05-05 18:15 51.80180 0.39168 21307 ft 394 kts 74°
2026-05-05 18:15 51.80856 0.43395 21822 ft 397 kts 74°
2026-05-05 18:15 51.81553 0.47767 22325 ft 400 kts 74°
2026-05-05 18:16 51.82240 0.52094 22842 ft 403 kts 75°
2026-05-05 18:16 51.82937 0.56505 23283 ft 407 kts 75°
2026-05-05 18:16 51.83633 0.60925 23761 ft 410 kts 75°
2026-05-05 18:16 51.84335 0.65397 24214 ft 413 kts 76°
2026-05-05 18:17 51.85036 0.69902 24659 ft 416 kts 76°
2026-05-05 18:17 51.85753 0.74447 25079 ft 419 kts 76°
2026-05-05 18:17 51.86470 0.79009 25514 ft 422 kts 76°
2026-05-05 18:17 51.87182 0.83564 25934 ft 424 kts 76°
2026-05-05 18:18 51.87905 0.88220 26344 ft 426 kts 76°
2026-05-05 18:18 51.88626 0.92883 26730 ft 429 kts 76°
2026-05-05 18:18 51.89344 0.97544 27104 ft 431 kts 76°
2026-05-05 18:18 51.90071 1.02281 27491 ft 433 kts 77°
2026-05-05 18:19 51.90794 1.06999 27845 ft 435 kts 77°
2026-05-05 18:19 51.91519 1.11759 28177 ft 437 kts 77°
2026-05-05 18:19 51.92240 1.16504 28509 ft 440 kts 77°
2026-05-05 18:19 51.92971 1.21327 28817 ft 442 kts 77°
2026-05-05 18:20 51.93702 1.26172 29113 ft 445 kts 77°
2026-05-05 18:20 51.94427 1.31000 29396 ft 447 kts 77°
2026-05-05 18:20 51.95164 1.35913 29677 ft 450 kts 78°
2026-05-05 18:20 51.95904 1.40868 29953 ft 452 kts 78°
2026-05-05 18:21 51.96640 1.45796 30214 ft 454 kts 78°
2026-05-05 18:21 51.97375 1.50745 30492 ft 456 kts 78°
2026-05-05 18:21 51.98119 1.55766 30841 ft 456 kts 78°
2026-05-05 18:21 51.98854 1.60737 31226 ft 455 kts 78°
2026-05-05 18:22 51.99580 1.65670 31618 ft 453 kts 79°
2026-05-05 18:22 52.00305 1.70604 31986 ft 452 kts 79°
2026-05-05 18:22 52.01026 1.75528 32351 ft 451 kts 79°
2026-05-05 18:22 52.01745 1.80460 32692 ft 450 kts 79°
2026-05-05 18:23 52.02462 1.85392 33008 ft 449 kts 79°
2026-05-05 18:23 52.03175 1.90325 33309 ft 449 kts 79°
2026-05-05 18:23 52.03886 1.95254 33581 ft 449 kts 79°
2026-05-05 18:23 52.04593 2.00165 33843 ft 449 kts 79°
2026-05-05 18:24 52.05296 2.05069 34112 ft 448 kts 79°
2026-05-05 18:24 52.06005 2.10018 34398 ft 447 kts 79°
2026-05-05 18:24 52.06705 2.14923 34657 ft 447 kts 79°
2026-05-05 18:24 52.07405 2.19844 34912 ft 446 kts 79°
2026-05-05 18:25 52.08096 2.24716 35154 ft 445 kts 79°
2026-05-05 18:25 52.09475 2.34503 35404 ft 446 kts 79°
2026-05-05 18:26 52.10857 2.44382 35572 ft 448 kts 79°
2026-05-05 18:26 52.12487 2.54188 35743 ft 451 kts 75°
2026-05-05 18:27 52.14337 2.63863 35919 ft 452 kts 74°
2026-05-05 18:27 52.16208 2.73671 36081 ft 453 kts 75°
2026-05-05 18:28 52.18970 2.88319 36285 ft 456 kts 75°
2026-05-05 18:28 52.20830 2.98252 36428 ft 457 kts 75°
2026-05-05 18:29 52.22679 3.08188 36638 ft 457 kts 75°
2026-05-05 18:29 52.24507 3.18113 36828 ft 459 kts 76°
2026-05-05 18:30 52.25283 3.23150 36929 ft 458 kts 79°
2026-05-05 18:30 52.25874 3.28233 36939 ft 458 kts 83°
2026-05-05 18:30 52.26646 3.38486 36942 ft 457 kts 85°
2026-05-05 18:31 52.27340 3.48793 36941 ft 458 kts 85°
2026-05-05 18:31 52.28033 3.59087 36934 ft 458 kts 85°
2026-05-05 18:32 52.28722 3.69411 36935 ft 458 kts 86°
2026-05-05 18:32 52.29402 3.79694 36936 ft 458 kts 86°
2026-05-05 18:33 52.30077 3.90021 36944 ft 458 kts 86°
2026-05-05 18:33 52.30740 4.00335 36934 ft 457 kts 86°
2026-05-05 18:34 52.31396 4.10687 36936 ft 458 kts 86°
2026-05-05 18:34 52.32040 4.20966 36935 ft 458 kts 86°
2026-05-05 18:35 52.32679 4.31305 36930 ft 458 kts 86°
2026-05-05 18:35 52.33309 4.41647 36924 ft 458 kts 86°
2026-05-05 18:36 52.33926 4.51931 36921 ft 458 kts 86°
2026-05-05 18:36 52.34539 4.62279 36927 ft 458 kts 87°
2026-05-05 18:37 52.35144 4.72657 36922 ft 458 kts 88°
2026-05-05 18:37 52.35737 4.83000 36922 ft 458 kts 88°
2026-05-05 18:38 52.36319 4.93324 36922 ft 458 kts 88°
2026-05-05 18:38 52.36892 5.03645 36917 ft 458 kts 88°
2026-05-05 18:39 52.37459 5.14001 36914 ft 458 kts 88°
2026-05-05 18:39 52.38014 5.24292 36913 ft 459 kts 88°
2026-05-05 18:40 52.38565 5.34702 36913 ft 458 kts 88°
2026-05-05 18:40 52.39105 5.45052 36912 ft 459 kts 88°
2026-05-05 18:41 52.39631 5.55361 36912 ft 460 kts 88°
2026-05-05 18:41 52.40155 5.65796 36912 ft 459 kts 89°
2026-05-05 18:42 52.40667 5.76155 36911 ft 459 kts 89°
2026-05-05 18:42 52.41169 5.86507 36906 ft 459 kts 89°
2026-05-05 18:43 52.41663 5.96866 36903 ft 459 kts 89°
2026-05-05 18:43 52.42148 6.07272 36905 ft 460 kts 89°
2026-05-05 18:44 52.42625 6.17672 36906 ft 460 kts 89°
2026-05-05 18:44 52.43095 6.28113 36901 ft 459 kts 89°
2026-05-05 18:45 52.43553 6.38527 36899 ft 460 kts 89°
2026-05-05 18:45 52.44002 6.48915 36899 ft 460 kts 89°
2026-05-05 18:46 52.44443 6.59356 36899 ft 460 kts 89°
2026-05-05 18:46 52.44873 6.69746 36894 ft 460 kts 90°
2026-05-05 18:47 52.45296 6.80178 36894 ft 460 kts 90°
2026-05-05 18:47 52.45708 6.90577 36887 ft 459 kts 90°
2026-05-05 18:48 52.46114 7.01075 36883 ft 460 kts 90°
2026-05-05 18:48 52.46507 7.11474 36886 ft 460 kts 90°
2026-05-05 18:49 52.46895 7.21925 36883 ft 460 kts 90°
2026-05-05 18:49 52.47272 7.32370 36880 ft 460 kts 90°
2026-05-05 18:50 52.47639 7.42790 36880 ft 460 kts 90°
2026-05-05 18:50 52.47998 7.53257 36875 ft 460 kts 90°
2026-05-05 18:51 52.48345 7.63656 36870 ft 461 kts 90°
2026-05-05 18:51 52.48687 7.74131 36872 ft 460 kts 91°
2026-05-05 18:52 52.49016 7.84543 36870 ft 460 kts 91°
2026-05-05 18:52 52.49338 7.95015 36865 ft 460 kts 91°
2026-05-05 18:53 52.49650 8.05471 36862 ft 460 kts 91°
2026-05-05 18:53 52.49954 8.15912 36861 ft 460 kts 91°
2026-05-05 18:54 52.50247 8.26377 36862 ft 461 kts 91°
2026-05-05 18:54 52.50529 8.36769 36864 ft 461 kts 91°
2026-05-05 18:55 52.50806 8.47262 36864 ft 461 kts 91°
2026-05-05 18:55 52.51073 8.57746 36864 ft 461 kts 91°
2026-05-05 18:56 52.51331 8.68240 36868 ft 461 kts 92°
2026-05-05 18:56 52.51580 8.78719 36870 ft 461 kts 92°
2026-05-05 18:57 52.51819 8.89232 36866 ft 461 kts 92°
2026-05-05 18:57 52.52048 8.99714 36867 ft 462 kts 92°
2026-05-05 18:58 52.52269 9.10187 36869 ft 462 kts 92°
2026-05-05 18:58 52.52480 9.20705 36870 ft 462 kts 92°
2026-05-05 18:59 52.52684 9.31229 36869 ft 461 kts 92°
2026-05-05 18:59 52.52875 9.41719 36869 ft 462 kts 92°
2026-05-05 19:00 52.53060 9.52324 36867 ft 462 kts 92°
2026-05-05 19:00 52.53235 9.62824 36865 ft 462 kts 92°
2026-05-05 19:01 52.53400 9.73394 36861 ft 462 kts 93°
2026-05-05 19:01 52.53555 9.83867 36865 ft 462 kts 93°
2026-05-05 19:02 52.53704 9.94467 36861 ft 462 kts 93°
2026-05-05 19:02 52.53840 10.04982 36868 ft 462 kts 93°
2026-05-05 19:03 52.53966 10.15433 36861 ft 463 kts 93°
2026-05-05 19:03 52.54086 10.26018 36860 ft 463 kts 92°
2026-05-05 19:04 52.54195 10.36550 36781 ft 464 kts 93°
2026-05-05 19:04 52.54248 10.41846 36448 ft 463 kts 93°
2026-05-05 19:04 52.54299 10.47109 35887 ft 466 kts 93°
2026-05-05 19:05 52.54348 10.52409 35261 ft 469 kts 94°
2026-05-05 19:05 52.54394 10.57748 34496 ft 472 kts 94°
2026-05-05 19:05 52.54432 10.63119 33725 ft 473 kts 94°
2026-05-05 19:05 52.54468 10.68448 33006 ft 473 kts 94°
2026-05-05 19:06 52.54505 10.73846 32281 ft 472 kts 94°
2026-05-05 19:06 52.54539 10.79173 31569 ft 472 kts 94°
2026-05-05 19:06 52.54572 10.84533 30845 ft 472 kts 94°
2026-05-05 19:06 52.54604 10.89927 30116 ft 471 kts 93°
2026-05-05 19:07 52.54632 10.95286 29401 ft 471 kts 93°
2026-05-05 19:07 52.54659 11.00575 28935 ft 464 kts 93°
2026-05-05 19:07 52.54682 11.05823 28473 ft 459 kts 93°
2026-05-05 19:07 52.54707 11.11024 27997 ft 454 kts 92°
2026-05-05 19:08 52.54800 11.16158 27512 ft 450 kts 91°
2026-05-05 19:08 52.54926 11.21213 27044 ft 446 kts 90°
2026-05-05 19:08 52.55109 11.26268 26555 ft 443 kts 88°
2026-05-05 19:08 52.55356 11.31290 26153 ft 440 kts 87°
2026-05-05 19:09 52.55610 11.36259 25798 ft 439 kts 87°
2026-05-05 19:09 52.55864 11.41281 25459 ft 438 kts 87°
2026-05-05 19:09 52.56104 11.46175 25140 ft 436 kts 88°
2026-05-05 19:09 52.56341 11.51106 24825 ft 434 kts 88°
2026-05-05 19:10 52.56575 11.56071 24504 ft 432 kts 87°
2026-05-05 19:10 52.56799 11.60912 24193 ft 430 kts 87°
2026-05-05 19:10 52.57023 11.65788 23873 ft 428 kts 88°
2026-05-05 19:10 52.57244 11.70654 23561 ft 426 kts 88°
2026-05-05 19:11 52.57461 11.75499 23241 ft 424 kts 88°
2026-05-05 19:11 52.57674 11.80298 22919 ft 422 kts 88°
2026-05-05 19:11 52.57885 11.85071 22525 ft 419 kts 88°
2026-05-05 19:11 52.58093 11.89839 22107 ft 416 kts 88°
2026-05-05 19:12 52.58296 11.94538 21676 ft 413 kts 88°
2026-05-05 19:12 52.58498 11.99228 21229 ft 410 kts 88°
2026-05-05 19:12 52.58693 12.03821 20801 ft 407 kts 87°
2026-05-05 19:12 52.58886 12.08432 20344 ft 404 kts 87°
2026-05-05 19:13 52.59078 12.13024 19907 ft 401 kts 87°
2026-05-05 19:13 52.59266 12.17577 19448 ft 398 kts 87°
2026-05-05 19:13 52.59448 12.22038 19013 ft 395 kts 87°
2026-05-05 19:13 52.59630 12.26507 18533 ft 393 kts 87°
2026-05-05 19:14 52.59808 12.30964 18014 ft 391 kts 87°
2026-05-05 19:14 52.59987 12.35410 17628 ft 386 kts 87°
2026-05-05 19:14 52.60160 12.39805 17190 ft 383 kts 87°
2026-05-05 19:14 52.60328 12.44109 16759 ft 381 kts 87°
2026-05-05 19:15 52.60497 12.48471 16304 ft 378 kts 87°
2026-05-05 19:15 52.60661 12.52722 15863 ft 376 kts 87°
2026-05-05 19:15 52.60784 12.56973 15419 ft 372 kts 92°
2026-05-05 19:15 52.60282 12.61107 14968 ft 365 kts 113°
2026-05-05 19:16 52.58968 12.64560 14515 ft 357 kts 134°
2026-05-05 19:16 52.57026 12.67027 14072 ft 350 kts 151°
2026-05-05 19:16 52.54899 12.68928 13634 ft 347 kts 154°
2026-05-05 19:16 52.52760 12.70722 13189 ft 345 kts 155°
2026-05-05 19:17 52.50655 12.72460 12735 ft 342 kts 155°
2026-05-05 19:17 52.48535 12.74182 12288 ft 339 kts 155°
2026-05-05 19:17 52.46413 12.75894 11825 ft 337 kts 155°
2026-05-05 19:17 52.44335 12.77547 11383 ft 334 kts 155°
2026-05-05 19:18 52.42256 12.79181 10929 ft 331 kts 155°
2026-05-05 19:18 52.40171 12.80798 10429 ft 331 kts 155°
2026-05-05 19:18 52.38121 12.82365 9944 ft 330 kts 155°
2026-05-05 19:18 52.36034 12.83933 9445 ft 329 kts 155°
2026-05-05 19:19 52.33979 12.85459 8949 ft 328 kts 155°
2026-05-05 19:19 52.31910 12.86981 8458 ft 327 kts 155°
2026-05-05 19:19 52.29837 12.88504 7949 ft 321 kts 155°
2026-05-05 19:19 52.27842 12.89967 7435 ft 311 kts 155°
2026-05-05 19:20 52.25926 12.91371 6922 ft 301 kts 155°
2026-05-05 19:20 52.24037 12.92753 6426 ft 292 kts 155°
2026-05-05 19:20 52.22204 12.94089 5920 ft 285 kts 154°
2026-05-05 19:20 52.20587 12.95802 5395 ft 276 kts 131°
2026-05-05 19:21 52.19645 12.98391 4886 ft 266 kts 104°
2026-05-05 19:21 52.19570 13.01304 4378 ft 256 kts 75°
2026-05-05 19:21 52.20332 13.03808 4001 ft 244 kts 53°
2026-05-05 19:21 52.21382 13.05927 3625 ft 240 kts 50°
2026-05-05 19:22 52.22461 13.07962 3272 ft 234 kts 49°
2026-05-05 19:22 52.23502 13.09908 3095 ft 225 kts 49°
2026-05-05 19:22 52.24516 13.11799 2978 ft 215 kts 49°
2026-05-05 19:22 52.25493 13.13622 2977 ft 216 kts 49°
2026-05-05 19:23 52.26490 13.15494 2972 ft 217 kts 51°
2026-05-05 19:23 52.27347 13.17488 2967 ft 217 kts 59°
2026-05-05 19:23 52.28033 13.19694 2965 ft 217 kts 64°
2026-05-05 19:23 52.28631 13.21862 2947 ft 203 kts 66°
2026-05-05 19:24 52.29158 13.23960 3058 ft 198 kts 67°
2026-05-05 19:24 52.29656 13.26041 2851 ft 197 kts 67°
2026-05-05 19:24 52.30136 13.28094 2564 ft 192 kts 68°
2026-05-05 19:24 52.30591 13.30106 2301 ft 182 kts 68°
2026-05-05 19:25 52.30999 13.31975 2035 ft 167 kts 68°
2026-05-05 19:25 52.31395 13.33656 1786 ft 154 kts 66°
2026-05-05 19:25 52.31782 13.35189 1648 ft 135 kts 65°
2026-05-05 19:25 52.32119 13.36555 1487 ft 133 kts 65°
2026-05-05 19:26 52.32462 13.37958 1346 ft 132 kts 66°
2026-05-05 19:26 52.32782 13.39363 1132 ft 133 kts 68°
2026-05-05 19:26 52.33110 13.40807 984 ft 136 kts 67°
2026-05-05 19:26 52.33445 13.42256 813 ft 137 kts 67°
2026-05-05 19:27 52.33795 13.43693 605 ft 138 kts 67°
2026-05-05 19:27 52.34144 13.45179 392 ft 141 kts 66°
2026-05-05 19:27 52.34502 13.46672 244 ft 140 kts 68°
2026-05-05 19:27 52.34839 13.48091 166 ft 123 kts 67°
2026-05-05 19:28 52.35090 13.49146 166 ft 76 kts 68°
2026-05-05 19:28 52.35244 13.49791 166 ft 52 kts 68°
2026-05-05 19:28 52.35349 13.50237 165 ft 29 kts 68°
2026-05-05 19:28 52.35450 13.50506 166 ft 26 kts 48°
2026-05-05 19:29 52.35546 13.50643 165 ft 15 kts 39°
2026-05-05 19:29 52.35617 13.50738 166 ft 2 kts 37°
2026-05-05 19:29 52.35632 13.50756 165 ft 3 kts 37°
2026-05-05 19:29 52.35652 13.50782 165 ft 4 kts 38°
2026-05-05 19:30 52.35678 13.50816 165 ft 6 kts 38°
2026-05-05 19:30 52.35727 13.50847 166 ft 9 kts 357°
2026-05-05 19:30 52.35798 13.50808 165 ft 11 kts 339°
2026-05-05 19:30 52.35873 13.50762 165 ft 11 kts 339°
2026-05-05 19:31 52.35952 13.50712 165 ft 12 kts 339°
2026-05-05 19:31 52.36034 13.50660 165 ft 13 kts 339°
2026-05-05 19:31 52.36121 13.50606 165 ft 13 kts 339°
2026-05-05 19:31 52.36209 13.50549 165 ft 13 kts 339°
2026-05-05 19:32 52.36267 13.50513 165 ft 5 kts 339°
2026-05-05 19:32 52.36296 13.50533 165 ft 5 kts 67°
2026-05-05 19:32 52.36312 13.50600 165 ft 5 kts 68°
2026-05-05 19:32 52.36318 13.50624 165 ft 0 kts 68°
2026-05-05 19:33 52.36319 13.50626 165 ft 0 kts 68°